Portada
METAR-TAF:

METAR-TAF

Aeroports :

Asahikawa-airbase, Japó

latitud: 43-48N, longitud: 142-22E, altitud: 115 m

Observació

L'informe es va fer fa 4 hores i 21 minuts, a les 03:35 UTC
Vent 5 kt del Nord/Nord-Oest
Temperatura -6°C
Humitat 73%
Pressió 1020 hPa
Visibilitat: 2500 m
Escasses núvols a una alçada de 300 ft
Núvols disperses a una alçada de 800 ft
Cel ennuvolat a una alçada de 2000 ft
xàfecs de neu

METAR: RJCA 220335Z 34005KT 2500 -SHSN FEW003 SCT008 BKN020 M06/M10 Q1020 RMK 1ST003 3ST008 7CU020 A3012

Hora: 16:56 (07:56 UTC)


TAF: manca

Observacions i pronòstics meteorològics de més de 4000 aeroports (METAR i TAF).

Les estacions disponibles són els punts grocs i vermells al mapa.

Posi el ratolí al punt desitjat per veure el nom de l'estació.

Feu clic per veure les observacions i els pronòstics meteorològics.

Per canviar el mapa: feu clic els botons verds amb una creu de color negre per apropar; al botó verd amb un guió per allunyar la imatge; o en les fletxes verdes per a mapes adjacents.


METAR-TAF: